FW9448 Weather Reports


Display with metric or nautical units.
time (UTC)temp
F
wind
direction
speed
MPH
gust
MPH
rain 1hr
in
rain 24hr
in
rain mn
in
humidity
%
barometer
mb
20260504081541 37 263 6.0 10.0 0.03 0.33 0.07 96 977.0
20260504044536 42 4 2.0 5.0 0.00 0.26 0.00 86 976.1
20260504043046 42 92 3.0 12.0 0.00 0.26 0.00 85 976.3
20260504041540 42 102 6.0 14.0 0.00 0.26 0.00 85 976.7
20260504040041 42 85 5.0 14.0 0.00 0.26 0.00 86 977.2
20260504034538 43 142 3.0 12.0 0.00 0.26 0.00 87 977.6
20260504033038 43 0 2.0 10.0 0.00 0.26 0.00 88 977.6
20260504031540 42 0 1.0 15.0 0.00 0.26 0.00 88 978.0
20260504030041 42 0 3.0 12.0 0.00 0.26 0.00 89 978.2
20260504024539 42 70 6.0 24.0 0.00 0.26 0.26 87 978.3
20260504023038 42 19 7.0 28.0 0.00 0.26 0.26 87 979.0
20260504021551 42 7 6.0 21.0 0.00 0.26 0.26 87 980.1
20260504020037 42 21 10.0 27.0 0.00 0.26 0.26 87 981.3
20260504014540 42 127 12.0 36.0 0.00 0.26 0.26 85 981.8
20260504013049 42 107 12.0 40.0 0.00 0.26 0.26 86 981.4
20260504011538 42 83 20.0 42.0 0.00 0.26 0.26 87 981.8
20260504010044 43 121 36.0 54.0 0.01 0.26 0.26 87 981.7
20260504004537 42 83 33.0 54.0 0.02 0.26 0.26 88 981.4
20260504003038 42 75 35.0 52.0 0.03 0.26 0.26 88 982.2
20260504001540 42 94 28.0 46.0 0.03 0.26 0.26 88 983.9
20260504000042 42 110 28.0 46.0 0.02 0.25 0.25 89 984.6
20260503234540 42 95 20.0 37.0 0.01 0.24 0.24 89 986.9
20260503233042 42 48 12.0 28.0 0.03 0.23 0.23 90 988.5
20260503231537 41 47 8.0 23.0 0.06 0.23 0.23 93 990.2
20260503230038 40 85 9.0 22.0 0.07 0.23 0.23 95 991.8
20260503224537 39 18 9.0 19.0 0.08 0.23 0.23 95 992.4
20260503223041 39 23 7.0 14.0 0.08 0.20 0.20 94 993.2
20260503221539 39 336 6.0 10.0 0.07 0.17 0.17 93 994.1
20260503220038 39 8 4.0 11.0 0.07 0.16 0.16 93 994.8
20260503214541 39 87 8.0 18.0 0.06 0.15 0.15 92 995.5
20260503213037 40 31 11.0 18.0 0.04 0.12 0.12 92 994.7
20260503211538 40 43 11.0 22.0 0.03 0.10 0.10 93 996.0
20260503210040 40 31 9.0 21.0 0.05 0.09 0.09 92 996.1
20260503204539 42 359 7.0 21.0 0.06 0.09 0.09 91 996.9
20260503203044 42 358 7.0 20.0 0.07 0.08 0.08 90 998.0
20260503201543 42 19 5.0 12.0 0.07 0.07 0.07 89 999.0
20260503200038 42 53 10.0 22.0 0.04 0.04 0.04 87 999.2
20260503194538 42 62 8.0 18.0 0.03 0.03 0.03 84 1000.3
20260503193045 44 58 13.0 18.0 0.01 0.01 0.01 78 1001.1
20260503191540 46 106 17.0 30.0 0.00 0.00 0.00 71 1002.2
20260503190038 48 120 14.0 24.0 0.00 0.00 0.00 64 1002.8
20260503184541 49 112 14.0 25.0 0.00 0.00 0.00 55 1002.9
20260503183037 50 130 15.0 25.0 0.00 0.00 0.00 47 1003.7
20260503181537 52 108 16.0 25.0 0.00 0.00 0.00 40 1003.8
20260503180045 53 110 14.0 27.0 0.00 0.00 0.00 35 1004.2
20260503174544 52 120 18.0 25.0 0.00 0.00 0.00 35 1004.1
20260503173047 53 131 16.0 22.0 0.00 0.00 0.00 35 1005.4
20260503171538 52 104 11.0 18.0 0.00 0.00 0.00 34 1006.1